CZ-6A DEB, 60712

Orbit data source: Space-Track

CZ-6A DEB, 60712 is space debris in LEO originally from a launch on Tue, 06 Aug 2024 UTC launched from the Taiyaun Space Center, China (TSC). Debris objects in space refer to the collection of defunct objects orbiting the Earth. Examples of debris include non-operational satellites, rocket bodies, and fragments generated from explosions, collisions, or faulty payload assembly.

Loading next visibility...
Identifier
60712, 2024-140DR
Orbit
LEO
Country
Flag of CNCN / PRC
Related business
Manufacturer
SAST
Mission
Spacecraft
Bus & Motor
Unknown
Mass
Unknown
Launch date (UTC)
2024-08-06 (2 years ago)
Launch vehicle
Unknown
Launch site
Taiyaun Space Center, China (TSC)
Object type
Payload
Rocket body
Debris
Shape & HBR
Unknown shape, 0.3 m
Radar Cross Section
Medium (>0.1 m² and <1 m²)

Expand to show TLE details & history
Last TLE update: 9 hours ago

TLE from 9 hours ago
0 CZ-6A DEB
1 60712U 24140DR  26171.46924701  .00001985  00000-0  28600-3 0  9999
2 60712  88.8823 257.9302 0149907 194.0894 165.6123 14.68420902 99242
Epoch: 2026-06-20T11:15Z
TLE epoch observation values (Epoch: 2026-06-20T11:15:42.941Z)
Latitude
0.00004°
Longitude
-179.68214°
Altitude
771.641 km
Speed
7.414 km/s
True Right ascension
17h 11m 43s
True Declination
0° 00' 00"
Sunlit
Object was in full shadow at epoch
Visualization orbit readout
Latitude
Unknown
Longitude
Unknown
Altitude
Unknown
Speed
Unknown
Apparent Right ascension
Unknown
Apparent Declination
Unknown
Sunlit
N/A
Visualization observer readout
Local Sidereal Time
07:19:27
Azimuth
Unknown
Elevation
Unknown
Doppler factor
Unknown
Orbital elements
Apogee altitude
768.547 km
Perigee altitude
557.444 km
Semi-major axis
7,041.132 km
Eccentricity
0.01499
Inclination
88.8823°
RAAN
257.9302°
Arg. of periapsis
194.0894°
True anomaly
166.03153°
Mean anomaly
165.6123°
Eccentric anomaly
165.82267°
Mean motion
3.67349 °/min
Orbital period
98 mins
BSTAR
0.000286
Loading maneuver chart data...
Computing Atmospheric mass density...
Loading historical data...
Loading historical data...
Loading historical data...
Loading historical data...
Loading historical data...
Loading historical data...
Loading historical data...

Documentation

Showing up to 5 results
|